This is the latest recevied weather packets stored in our database for station/object OE-11204. If no packets are shown the sender has not sent any weather packets the latest 10 day(s).
| Time | Temp. | Humidity | Pressure | Rain* | Wind** | Luminosity | Snow |
|---|---|---|---|---|---|---|---|
| 1787681115 | 18.33° C | 89% | 1013.7 hPa | 0.25 mm | - | 12 W/m² | - |
| 1787680515 | 18.33° C | 88% | 1013.5 hPa | 0.25 mm | - | 25 W/m² | - |
| 1787679688 | 18.33° C | 89% | 1013.5 hPa | 0.25 mm | - | 43 W/m² | - |
| 1787679315 | 18.33° C | 88% | 1013.4 hPa | 0.25 mm | - | 43 W/m² | - |
| 1787678715 | 18.33° C | 86% | 1013.4 hPa | 0.25 mm | - | 31 W/m² | - |
| 1787677888 | 18.33° C | 85% | 1013.4 hPa | 0.25 mm | - | 31 W/m² | - |
| 1787677515 | 18.33° C | 85% | 1013.2 hPa | 0 mm | - | 25 W/m² | - |
| 1787676914 | 18.89° C | 82% | 1013 hPa | 0 mm | - | 25 W/m² | - |
| 1787676088 | 19.44° C | 76% | 1012.7 hPa | 0 mm | - | 19 W/m² | - |
| 1787675714 | 20° C | 72% | 1012.5 hPa | 0 mm | - | 31 W/m² | - |
| 1787675114 | 20.56° C | 73% | 1012.4 hPa | 0 mm | - | 68 W/m² | - |
| 1787674288 | 21.11° C | 73% | 1012 hPa | 0 mm | - | 124 W/m² | - |
| 1787673915 | 20.56° C | 73% | 1012.1 hPa | 0 mm | - | 155 W/m² | - |
| 1787673315 | 20.56° C | 70% | 1011.9 hPa | 0 mm | - | 149 W/m² | - |
| 1787672488 | 21.11° C | 73% | 1011.8 hPa | 0 mm | - | 167 W/m² | - |
| 1787672115 | 21.11° C | 69% | 1011.8 hPa | 0 mm | - | 210 W/m² | - |
| 1787671515 | 21.11° C | 70% | 1011.8 hPa | 0 mm | - | 223 W/m² | - |
| 1787670688 | 21.11° C | 71% | 1011.6 hPa | 0 mm | - | 235 W/m² | - |
| 1787670314 | 21.11° C | 71% | 1011.6 hPa | 0 mm | - | 278 W/m² | - |
| 1787669715 | 21.11° C | 69% | 1011.5 hPa | 0 mm | - | 421 W/m² | - |
| 1787668888 | 21.11° C | 70% | 1011.3 hPa | 0 mm | - | 532 W/m² | - |
| 1787668515 | 20.56° C | 68% | 1011.5 hPa | 0 mm | - | 377 W/m² | - |
| 1787667914 | 20.56° C | 71% | 1011.5 hPa | 0 mm | - | 458 W/m² | - |
| 1787667088 | 20.56° C | 72% | 1011.6 hPa | 0 mm | - | 309 W/m² | - |
| 1787666715 | 20.56° C | 70% | 1011.4 hPa | 0 mm | - | 625 W/m² | - |
* Rain latest hour (hover to see other rain measurements)
** Current wind speed in m/s (hover to see current wind gust speed)